Regional Weather Roundup
Issued by NWS Nashville, TN

Home | Current Version | Previous Version | Text Only | Print | Product List | Glossary On
Versions: 1 2 3 4 5 6 7 8 9 10 11 12 13 14 15 16 17 18 19 20 21 22 23 24 25 26 27 28 29 30 31 32 33 34 35 36 37 38 39 40 41 42 43 44 45 46 47 48 49 50
000
ASUS44 KOHX 251915
RWROHX
MIDDLE TENNESSEE HOURLY WEATHER ROUNDUP
NATIONAL WEATHER SERVICE NASHVILLE TN
200 PM CDT SAT OCT 25 2014

NOTE: "FAIR" INDICATES FEW OR NO CLOUDS BELOW 12,000 FEET WITH
NO SIGNIFICANT WEATHER AND/OR OBSTRUCTIONS TO VISIBILITY.

* THESE REPORTS ARE NOT UNDER NWS QUALITY CONTROL AND MAY NOT
  REPORT WEATHER SUCH AS PRECIPITATION AND FOG.


TNZ005>011-023>034-057-059-062>066-078-080-252000
...NORTHERN MIDDLE TENNESSEE...

CITY           SKY/WX    TMP DP  RH WIND       PRES   REMARKS
CLARKSVILLE    SUNNY     77  61  57 W10       30.00F HAZE
CROSSVILLE     CLOUDY    68  52  56 W9        30.06F
NASHVILLE      MOSUNNY   78  59  51 W7        30.01F
SMYRNA         SUNNY     78  61  55 NW9       30.02F
SPARTA         PTSUNNY   72  55  56 CALM      30.04F
$$
TNZ056-058-060-061-075>077-079-093>097-252000
...SOUTHERN MIDDLE TENNESSEE...

CITY           SKY/WX    TMP DP  RH WIND       PRES   REMARKS
COLUMBIA       SUNNY     79  64  61 W7        30.01F
FAYETTEVILLE   SUNNY     72  55  56 VRB7      30.05F
MCMINNVILLE    PTSUNNY   73  61  64 CALM      30.04F
SHELBYVILLE    SUNNY     77  61  57 W7        30.04F
TULLAHOMA      SUNNY     73  55  53 W8        30.05F
WINCHESTER     SUNNY     72  55  56 NW3       30.05F
$$


...KEY TO REMARKS...
VSB - VISIBILITY IN MILES
WCI - WIND CHILL INDEX
HX  - HEAT INDEX




USA.gov is the U.S. government's official web portal to all federal, state and local government web resources and services.